Theta_e
305 306 307 308 308 308 309 309 308 308 309 310 310 312 313 313 313 311 312 313 312 313 314 313 314 314 314 314 315 315 315 315 315 315 315 317 318 316 314 315 316 316 315 313 312 313 312 312 313 312 317 318 316 316 314 316 322 330 333 324 316 318 318 318 322 320 316 317 318 316 313 314 317 315 310 309 312 315 314 314 315 311 310 309 306 306 307 307
306 306 307 308 308 309 309 310 310 309 309 310 309 311 313 314 314 313 312 313 313 314 314 314 315 315 315 315 315 315 315 315 315 314 316 318 318 316 315 316 316 315 314 312 312 312 313 314 312 314 321 319 314 317 319 315 320 334 329 316 321 327 319 318 324 321 316 315 316 316 313 312 314 313 311 312 316 316 315 315 316 315 314 311 306 307 308 307
307 307 307 309 309 309 309 310 310 309 309 309 310 311 313 314 315 313 313 313 313 314 314 315 315 315 315 315 315 315 315 315 315 315 316 317 317 315 316 316 315 314 313 312 312 312 313 314 311 316 324 319 315 320 324 318 319 326 321 318 329 331 321 318 321 320 316 314 316 318 313 311 313 312 311 313 315 315 316 316 315 316 316 313 306 304 307 306
308 308 307 308 309 309 309 310 311 310 309 310 310 312 312 314 315 313 313 314 314 315 315 315 316 316 316 316 316 314 315 317 315 314 315 317 316 316 316 314 313 313 313 312 313 313 313 313 312 318 322 319 319 321 321 319 318 317 318 324 327 321 319 319 320 321 318 313 314 317 314 314 314 312 311 312 314 315 316 315 314 313 313 313 307 303 304 304
308 308 308 308 308 309 309 310 311 310 310 311 311 312 313 314 314 313 314 314 315 316 316 316 317 317 317 317 316 314 318 320 314 312 314 315 316 315 313 313 313 314 313 312 313 313 313 312 314 322 321 318 321 320 318 318 316 316 319 324 324 318 316 319 321 321 317 313 314 317 317 314 312 311 313 312 313 314 312 311 311 309 309 311 308 304 303 303
309 308 308 308 308 309 309 310 311 311 311 311 312 313 313 314 314 314 315 316 316 317 317 318 318 318 318 318 317 315 319 320 313 314 316 315 314 314 313 313 314 313 313 313 313 312 314 314 316 324 323 317 318 315 315 316 314 316 319 319 322 319 317 319 320 318 315 315 317 318 313 311 312 312 312 312 313 311 306 306 307 305 304 305 304 303 303 302
310 309 308 308 309 309 309 310 311 312 312 313 314 314 314 315 315 315 316 317 317 318 319 319 319 319 319 318 317 317 320 319 315 317 320 316 313 313 313 313 314 314 313 313 313 314 317 316 317 322 322 316 315 314 313 315 315 317 320 320 319 316 318 320 319 318 316 315 316 314 310 310 314 313 310 310 310 306 303 303 303 303 302 302 302 302 302 302
313 311 310 309 310 310 310 311 312 312 313 314 315 315 315 316 316 317 317 318 319 320 320 320 319 319 319 317 317 323 324 319 316 318 319 318 315 313 313 313 313 314 313 313 313 315 315 315 315 316 317 314 313 315 312 312 317 320 322 323 318 316 321 321 317 318 317 315 312 310 311 313 312 310 310 309 306 304 304 303 302 302 302 302 301 301 301 301
314 313 312 312 311 310 312 312 312 313 313 314 315 316 316 316 317 318 318 319 319 320 320 320 320 318 318 316 317 324 323 318 318 319 318 318 317 316 316 314 314 314 313 312 313 313 313 316 316 313 315 315 312 313 313 312 317 320 321 321 317 315 317 316 315 317 317 315 311 310 313 313 309 309 310 307 303 304 305 304 302 302 302 301 300 300 300 300
313 314 314 313 312 312 312 313 313 314 314 314 315 316 317 317 318 319 319 319 319 320 320 320 320 318 317 316 317 323 320 319 321 319 318 318 318 318 317 316 315 314 312 312 312 312 313 315 313 310 314 315 311 311 313 312 313 317 319 318 317 315 314 314 315 315 313 312 311 311 313 312 308 310 312 306 302 305 308 307 302 302 302 300 299 299 300 299
314 314 314 314 314 313 312 313 314 314 315 315 316 317 318 318 319 319 319 319 319 319 319 319 318 317 317 316 321 324 318 318 320 319 318 317 318 317 316 316 314 313 312 311 311 311 312 312 308 308 312 312 311 312 312 311 311 314 314 314 317 316 314 315 315 313 310 311 311 310 313 312 308 311 312 306 304 308 312 309 303 302 302 300 300 299 299 299
315 315 314 314 315 314 313 314 314 315 316 316 317 318 318 319 319 320 320 320 319 319 318 318 317 317 316 317 322 322 316 316 318 317 318 317 318 317 315 315 314 313 312 311 312 312 312 311 310 312 313 311 313 313 311 310 311 313 313 314 318 318 316 314 313 311 310 311 312 310 314 317 313 311 308 304 305 309 312 309 304 303 301 300 300 298 299 298
316 315 314 315 315 315 314 314 315 316 317 317 318 318 319 320 320 321 321 321 320 318 317 317 317 316 315 321 322 316 316 316 316 317 317 317 317 316 315 315 314 313 313 313 313 312 312 311 312 313 312 314 316 311 311 312 311 313 313 314 315 317 319 313 309 310 310 311 311 311 317 324 317 308 305 304 306 314 316 309 304 303 301 300 300 298 299 298
318 316 315 315 315 315 314 315 316 316 317 318 318 319 320 320 321 322 321 321 320 318 317 315 316 314 316 323 319 314 316 316 315 316 316 317 316 315 315 315 314 314 314 314 313 313 313 312 311 312 311 314 314 308 315 320 318 315 312 317 318 316 323 320 312 313 312 311 310 311 317 322 314 305 305 304 304 316 319 308 303 303 301 300 300 299 298 297
319 317 315 315 315 315 315 315 316 317 318 319 319 320 321 321 322 321 321 322 320 317 316 315 315 314 319 322 316 314 316 315 316 317 317 317 315 315 315 315 314 314 314 313 313 313 312 312 312 315 312 310 312 315 322 326 326 322 314 323 323 316 323 323 315 315 314 310 309 312 317 319 312 306 305 303 306 317 316 307 303 302 301 300 299 298 298 297
318 316 315 315 315 315 315 315 317 319 318 319 320 321 321 321 321 321 321 319 318 317 316 317 315 314 322 322 315 315 315 314 316 316 318 317 315 316 314 313 313 313 313 311 312 312 311 314 313 313 313 311 317 325 327 324 327 325 316 322 326 318 320 318 315 314 312 310 310 312 316 319 313 305 304 304 307 316 314 307 303 302 301 299 298 297 297 296
317 316 315 315 315 315 315 315 318 318 318 320 321 321 320 320 320 319 319 317 317 317 316 317 315 315 321 319 316 318 315 313 315 316 318 317 316 316 313 312 311 310 312 310 311 312 311 314 312 312 315 315 318 324 326 323 326 327 317 318 322 318 316 318 318 314 310 311 312 312 313 316 313 307 307 305 305 313 312 306 303 301 300 298 298 297 296 296
317 317 317 316 315 315 314 315 317 317 318 320 320 320 319 319 319 318 318 317 316 316 316 316 315 320 324 318 317 318 313 312 314 315 317 318 316 315 314 311 308 309 313 313 312 313 313 315 317 320 318 315 316 320 324 324 327 330 323 319 322 318 315 316 317 313 311 313 315 315 314 315 314 311 311 304 302 311 309 302 301 300 299 298 297 296 296 295
317 317 317 316 315 315 314 315 317 317 318 319 320 319 318 317 317 317 316 316 319 321 323 320 319 327 327 319 315 313 312 313 314 314 315 316 313 313 313 310 311 314 315 316 314 313 316 317 318 321 319 316 316 317 320 322 322 326 324 321 322 320 317 316 316 313 312 313 315 315 314 316 315 314 314 305 302 306 304 301 301 300 299 298 297 296 296 295
317 317 317 316 315 314 314 315 316 317 318 319 319 317 319 320 321 321 317 317 322 323 324 324 322 325 323 318 315 312 313 313 313 314 313 313 311 312 311 309 314 316 315 321 317 312 315 318 319 320 320 318 316 315 315 317 316 317 318 318 318 318 317 316 316 315 312 312 317 318 315 315 314 315 314 305 303 304 303 302 302 300 299 298 298 297 296 295
318 318 316 315 315 315 314 315 316 317 317 318 318 318 321 325 325 325 322 321 320 315 320 322 317 320 319 315 314 312 315 315 312 312 312 312 311 312 314 312 316 316 317 322 318 311 312 317 320 320 318 316 315 314 313 314 314 313 314 315 316 316 315 314 313 315 313 312 317 320 317 315 314 316 311 305 306 306 303 303 301 300 299 298 298 297 296 295
318 318 316 315 316 316 315 315 316 316 317 318 318 316 317 319 319 317 320 325 322 314 316 317 314 318 316 313 313 313 317 320 316 313 312 312 311 314 316 316 318 319 317 318 317 315 316 318 321 317 315 314 314 314 313 314 313 313 313 313 315 315 315 317 316 315 314 312 318 320 316 316 316 314 307 304 306 304 302 303 302 300 300 299 298 297 296 296
318 317 316 316 316 315 315 315 316 316 317 318 318 316 314 316 316 315 317 326 327 318 317 319 318 320 318 315 314 314 318 321 320 317 312 312 313 315 317 316 318 320 318 317 319 321 322 323 321 315 313 314 315 314 313 313 313 314 314 314 316 315 315 321 318 315 314 312 317 318 315 316 316 312 306 302 302 301 300 302 301 300 300 298 297 296 296 296
318 317 316 317 316 315 314 315 317 317 318 318 318 318 316 317 316 315 318 323 325 322 318 317 317 321 322 316 313 316 319 320 321 318 312 312 315 314 316 317 319 320 317 317 319 320 323 322 317 315 315 314 315 315 314 314 315 316 316 315 316 315 315 319 317 315 316 315 313 314 317 320 319 315 309 303 301 301 300 300 300 299 298 297 296 295 295 294
318 317 316 317 316 314 314 316 317 317 318 317 319 318 316 317 315 315 320 325 327 323 317 313 315 320 319 314 314 317 319 320 321 317 311 312 315 314 315 316 318 320 318 317 317 319 322 317 314 317 316 314 316 318 317 317 317 319 320 316 315 316 316 316 315 315 320 322 315 312 322 330 325 320 312 305 303 303 301 301 300 299 298 298 297 296 295 294
318 317 317 317 316 314 315 317 317 318 318 317 319 319 317 317 315 314 321 329 330 325 319 317 317 318 315 313 314 317 321 321 314 311 310 310 312 314 316 314 315 320 319 317 318 320 319 314 313 318 318 315 317 318 317 317 318 320 321 317 315 314 314 314 316 317 322 325 314 310 320 327 327 326 314 305 306 304 302 302 301 300 299 299 298 296 295 294
318 317 317 317 315 315 316 318 318 318 320 320 319 318 316 316 314 313 321 331 330 324 321 319 315 316 314 311 312 319 325 320 311 309 310 310 311 312 318 317 315 317 316 317 321 321 317 314 315 317 318 318 317 318 317 316 320 323 319 318 318 316 316 318 317 318 322 321 316 316 318 319 324 325 311 304 308 306 302 303 301 300 300 299 298 297 296 295
318 317 317 317 315 315 317 318 318 317 320 321 318 317 316 315 314 316 327 335 329 321 320 317 312 311 310 308 311 317 316 313 316 313 307 308 310 312 319 321 319 319 315 318 325 320 315 317 319 317 317 318 318 321 319 315 321 323 315 315 319 317 319 320 319 319 317 315 321 323 316 317 324 322 310 305 310 310 305 303 302 301 300 299 298 297 296 295
318 317 317 316 315 315 317 318 318 318 320 319 317 317 316 314 315 320 329 332 326 318 316 314 310 310 311 310 313 314 308 309 316 313 307 309 310 310 316 318 319 318 313 317 324 319 313 314 317 318 319 321 321 319 315 315 319 315 310 313 315 315 316 317 319 320 316 316 324 324 317 319 325 325 317 310 314 315 308 303 302 302 301 299 298 297 295 294
317 317 317 316 316 315 316 318 317 319 320 318 318 317 315 316 321 326 329 330 326 317 313 312 311 312 315 315 315 313 310 310 312 311 311 312 311 311 311 311 315 318 315 317 320 317 312 308 311 317 319 320 318 311 308 313 314 310 312 318 317 317 318 317 319 319 318 322 325 321 317 317 321 326 322 315 316 315 309 305 302 302 301 300 299 297 295 294
317 316 317 317 316 315 316 317 317 319 319 318 318 316 317 320 325 331 330 327 325 318 313 314 312 313 317 319 319 314 311 312 312 314 315 312 313 314 312 311 317 321 321 320 319 317 312 311 313 315 314 314 315 312 308 309 309 312 320 323 319 321 319 318 321 319 322 328 322 314 313 315 319 325 322 316 313 310 308 307 303 302 302 299 298 296 295 294
319 317 317 317 316 315 316 317 318 319 319 317 316 317 321 324 326 331 329 324 325 321 317 317 312 313 317 317 317 315 314 313 312 316 318 314 315 316 316 318 320 322 323 321 322 320 317 316 314 312 310 313 319 318 311 309 310 315 322 323 324 327 323 322 324 320 323 324 314 310 313 314 317 321 320 318 315 309 306 305 303 301 301 299 298 296 294 294
321 318 317 318 317 316 316 317 318 319 318 316 316 318 322 327 328 330 328 325 325 319 317 319 315 315 317 316 315 314 314 313 312 315 315 314 317 315 315 317 315 319 322 318 319 322 323 319 312 312 313 313 318 320 317 317 315 315 320 323 326 330 329 331 326 318 319 317 310 309 312 315 317 317 316 313 310 305 303 303 304 302 300 299 297 295 294 294
322 320 317 317 318 316 316 317 318 320 318 316 319 320 321 327 327 326 327 325 322 318 318 319 314 314 316 317 317 316 316 314 311 314 315 314 317 317 316 314 311 318 323 318 318 322 326 323 315 314 316 313 314 317 321 323 316 315 319 320 323 328 329 329 327 323 321 318 313 310 312 321 322 314 309 304 302 300 300 303 303 302 301 299 296 295 294 294
321 320 318 318 318 317 316 317 318 319 318 317 321 323 323 327 325 325 328 325 322 321 318 317 315 315 316 316 316 315 317 315 312 314 315 316 319 320 321 318 314 318 321 320 320 318 320 324 318 312 311 311 313 314 317 320 317 314 315 316 320 324 322 320 320 320 319 319 317 313 315 321 318 309 303 301 300 300 300 302 302 301 300 298 296 295 294 293
320 319 318 317 316 316 316 317 318 318 318 319 323 324 323 325 324 325 326 322 321 320 316 317 320 319 318 318 317 314 314 316 315 314 314 315 317 318 320 321 317 316 318 322 323 318 319 322 316 310 310 310 312 312 313 317 318 314 313 319 320 316 317 320 317 314 315 319 319 317 318 319 315 311 306 303 303 302 300 301 301 300 299 298 296 295 294 293
318 317 317 316 316 316 316 317 318 318 318 321 324 323 321 321 323 323 321 318 319 318 317 321 322 320 320 319 319 317 316 316 315 315 316 316 316 316 318 320 316 313 316 320 322 322 324 323 315 311 313 310 306 310 313 312 315 317 319 321 316 312 316 321 320 319 318 321 320 318 319 319 318 317 311 306 308 306 301 300 300 299 298 298 297 295 294 293
316 316 316 315 316 317 316 316 317 317 319 322 324 322 320 320 319 319 318 316 317 318 321 325 322 320 321 321 321 318 317 318 315 316 318 317 316 317 318 319 315 313 314 314 315 319 322 324 317 310 312 311 307 312 316 310 311 317 318 315 314 318 321 319 320 323 322 321 322 322 320 316 318 319 315 313 315 311 303 300 300 299 298 298 297 296 294 293
316 316 317 315 315 316 316 317 317 317 320 323 323 321 320 320 319 318 316 316 318 319 322 325 324 322 321 322 322 318 318 319 316 317 320 318 317 316 315 317 315 312 313 313 316 318 317 321 321 311 309 312 311 315 320 315 311 312 313 313 314 318 321 320 320 322 322 321 321 321 319 316 317 319 318 319 317 311 304 301 299 299 299 298 298 297 294 293
315 318 317 313 314 317 316 316 317 318 321 322 321 320 319 319 318 317 316 317 319 318 321 324 324 324 323 321 320 319 320 320 317 319 321 319 317 315 314 316 315 312 313 313 316 319 315 318 322 315 309 312 316 317 319 319 316 315 315 316 316 314 316 318 317 318 321 322 321 320 318 318 319 317 319 322 317 307 304 304 301 298 298 298 298 297 295 293
314 320 317 310 313 316 315 316 318 319 320 320 320 319 318 318 318 316 315 317 318 317 319 322 322 323 323 321 321 320 321 321 319 321 321 318 319 317 313 314 315 313 313 314 315 318 316 318 322 318 313 317 320 315 312 315 319 320 320 320 318 316 317 318 316 316 318 319 321 320 317 318 318 313 314 318 313 304 303 304 301 299 299 298 298 297 295 293
316 321 314 308 311 314 315 318 318 319 320 319 318 318 317 317 318 317 316 317 319 318 318 320 320 322 322 321 321 320 320 321 320 321 321 319 320 318 313 313 316 317 317 317 316 315 316 320 322 320 318 318 315 308 305 308 313 316 317 318 317 317 318 319 318 317 316 315 316 317 317 317 314 307 307 309 306 303 301 301 300 299 299 298 297 297 295 293
317 316 309 307 310 312 316 320 318 318 319 317 316 317 317 317 317 317 316 317 318 318 319 320 319 319 320 320 319 319 321 321 320 320 322 321 319 315 313 316 319 321 319 318 317 316 318 321 320 320 321 317 311 308 308 308 310 314 315 314 315 316 317 317 317 318 317 316 316 316 316 316 311 304 303 303 302 302 301 300 300 300 300 299 298 297 295 293
312 310 307 307 308 310 316 320 318 319 317 315 315 316 315 316 317 317 317 317 318 318 319 319 317 318 319 319 319 320 321 320 320 319 320 320 316 312 312 315 317 318 319 321 322 319 319 319 317 319 321 318 315 315 315 314 314 316 317 315 314 315 315 315 314 315 315 316 316 316 315 316 312 303 303 304 303 304 303 300 300 300 300 299 297 296 295 294
311 310 309 307 307 309 313 315 316 318 316 314 316 315 315 315 315 315 316 317 318 318 318 316 316 318 319 317 318 320 319 318 320 318 317 318 315 311 311 312 312 315 319 320 319 318 317 317 316 318 320 319 319 318 319 319 316 314 316 316 315 313 314 314 314 314 315 315 315 315 314 315 313 307 307 308 307 309 307 301 299 300 299 298 297 296 295 295
313 313 310 309 308 309 310 310 312 316 316 315 316 315 316 315 314 313 315 316 317 317 316 315 315 316 317 316 317 318 318 316 317 317 317 318 316 311 308 309 311 314 315 314 315 318 319 316 316 318 318 317 317 316 316 317 316 315 316 317 316 314 312 312 314 315 315 314 314 314 313 314 314 312 311 311 311 312 309 303 299 299 299 298 297 297 296 295
312 312 311 311 311 311 311 310 312 314 315 316 316 315 315 315 314 313 314 315 316 316 315 314 314 315 316 315 315 316 318 317 316 316 317 318 316 310 305 306 310 312 313 311 312 317 318 315 315 317 316 316 316 314 313 313 313 314 314 314 315 314 312 312 313 314 313 314 314 313 312 313 313 312 314 315 314 311 309 306 302 300 299 299 298 297 297 296
308 310 309 309 311 311 310 311 311 312 314 316 316 315 316 315 314 315 314 312 313 315 315 314 313 314 315 315 316 316 316 317 315 314 315 316 316 313 309 308 307 308 311 310 308 313 317 315 315 315 314 314 314 312 312 312 311 312 312 313 313 313 311 311 311 312 312 313 312 311 311 312 312 311 314 316 315 314 313 311 305 301 299 299 298 298 297 296
305 307 304 304 308 309 308 310 310 311 312 314 314 315 316 315 314 314 313 312 312 313 315 315 313 313 314 314 316 315 315 316 316 314 315 315 315 315 315 313 308 305 308 309 308 310 314 315 314 313 313 313 312 311 311 311 311 311 311 311 311 311 310 310 310 310 310 311 311 310 311 311 310 311 313 314 312 310 309 306 303 302 301 300 299 298 297 296
305 306 304 304 305 305 306 309 310 310 311 312 313 313 314 315 314 313 312 313 314 313 314 315 314 313 313 314 315 315 314 316 317 316 315 314 313 314 315 316 312 306 306 309 309 309 311 313 313 312 312 312 311 310 311 310 310 310 310 310 310 309 309 309 309 309 308 309 309 309 310 309 308 310 312 310 307 305 305 304 303 303 302 300 299 298 297 296
299 299 301 306 306 304 306 308 309 310 310 311 312 313 313 314 314 313 313 313 314 314 314 314 314 313 312 312 313 314 313 314 316 316 316 315 314 314 313 313 313 310 307 307 309 310 309 309 310 311 312 311 310 311 310 308 308 308 309 309 309 309 309 309 308 308 308 308 308 308 309 308 308 308 308 306 305 305 307 306 304 302 300 300 300 299 297 296
296 296 299 306 308 305 305 307 308 309 310 310 311 311 313 314 313 313 313 311 312 313 312 313 314 313 312 312 312 313 314 315 315 314 313 313 313 312 311 311 311 311 310 307 307 309 308 308 310 311 311 309 308 308 308 307 308 308 308 307 307 307 307 307 307 307 306 307 308 308 308 308 308 306 304 304 304 304 305 304 303 303 300 298 298 298 298 298
Wind_Speed
4 4 3 3 3 4 4 4 4 3 3 3 3 4 3 3 3 3 3 4 5 6 7 8 9 10 11 12 13 14 15 16 14 10 6 5 4 3 3 2 3 1 1 0 1 3 2 4 4 5 4 4 4 3 3 3 2 4 3 3 1 2 3 4 6 5 2 2 4 3 2 2 4 4 2 1 2 3 3 4 4 4 4 4 5 15 15 13
4 4 3 3 3 4 4 4 3 3 3 3 3 3 3 3 3 3 3 4 5 6 7 8 9 10 11 12 13 14 15 16 10 6 6 6 3 4 5 4 3 2 2 1 1 3 3 2 3 6 5 3 3 2 2 2 3 3 3 2 2 5 4 4 6 5 3 2 4 4 1 3 3 2 2 3 4 5 5 5 4 5 6 2 11 17 15 14
3 4 4 3 3 3 3 3 3 3 2 2 2 3 3 3 3 3 4 5 6 7 8 9 9 10 11 11 12 13 14 12 5 4 6 6 5 6 6 4 3 4 3 1 3 2 3 4 4 5 4 3 2 2 3 3 2 1 3 2 4 5 3 4 5 5 5 1 3 5 0 2 4 2 2 3 5 5 3 5 3 4 6 4 10 16 17 17
2 4 4 4 3 3 3 3 3 2 2 2 2 2 2 3 3 4 5 5 6 7 8 8 9 9 10 10 10 11 11 7 2 2 4 4 4 5 4 4 4 4 2 3 4 4 6 7 6 5 3 2 3 3 2 2 1 2 3 3 4 3 1 4 6 6 4 2 2 3 3 3 3 2 1 1 4 5 3 4 4 4 5 4 5 10 16 18
1 3 4 4 4 4 3 3 3 2 2 1 1 2 2 3 3 4 5 6 6 7 7 8 9 8 9 9 8 8 8 5 1 2 3 2 3 4 4 4 4 3 2 4 6 7 7 5 6 6 4 2 3 3 1 2 2 2 2 4 4 4 2 4 5 4 3 3 2 3 4 4 0 1 2 3 3 4 2 3 1 1 3 4 4 7 13 15
2 2 4 4 4 4 3 3 3 2 2 1 1 1 2 2 3 4 5 6 6 6 7 8 8 8 8 7 6 5 4 1 3 1 2 1 2 2 4 4 4 2 2 4 6 6 4 5 6 4 3 2 1 2 0 2 1 1 2 1 3 4 3 3 3 4 3 2 3 3 3 2 2 3 2 5 5 2 4 3 4 6 5 6 8 8 9 10
2 2 3 3 4 4 3 3 3 2 2 1 0 1 1 2 4 4 5 5 6 6 7 7 8 8 7 6 5 4 4 2 4 1 2 0 1 1 3 3 2 1 1 4 5 5 4 5 4 3 4 2 1 1 1 3 3 3 2 2 1 4 4 3 1 2 3 3 6 1 2 3 2 4 1 1 1 3 4 5 8 9 10 10 10 9 9 9
3 2 2 2 3 3 3 3 2 1 1 1 0 1 1 2 3 4 4 5 6 6 7 7 7 7 6 4 3 4 2 4 2 0 2 1 1 2 2 1 1 1 3 3 4 5 4 4 3 4 3 1 3 2 1 2 4 3 3 2 1 3 5 4 3 5 5 6 4 1 4 7 5 2 1 3 3 4 3 6 7 8 11 11 10 10 9 10
3 3 2 2 3 3 3 3 2 1 1 1 0 1 2 2 3 4 4 5 6 5 6 6 6 6 5 3 5 3 3 3 2 0 0 0 1 1 2 2 2 3 4 3 4 7 4 3 3 4 3 2 4 2 1 1 2 3 5 2 1 3 5 4 4 6 6 4 1 1 8 6 2 2 0 2 3 2 3 7 6 7 9 9 8 9 9 10
2 2 3 3 3 3 3 4 3 2 1 1 1 2 2 3 3 4 4 5 6 6 6 6 6 5 2 3 5 1 3 3 1 1 2 2 1 0 2 3 3 3 4 4 5 7 4 5 5 5 5 2 3 2 2 3 1 3 4 2 3 4 5 2 5 6 4 4 3 5 9 3 1 1 2 1 3 2 5 7 6 7 8 7 7 7 9 11
3 2 4 4 3 4 4 4 4 2 2 2 2 3 3 3 4 4 5 6 6 6 6 5 5 3 1 3 4 3 4 3 2 2 2 1 2 3 2 3 3 3 4 5 6 7 3 6 9 6 2 2 2 1 1 3 2 2 1 2 5 6 6 4 6 6 3 3 4 6 7 2 2 0 2 1 3 3 6 6 6 7 6 6 6 6 8 10
7 5 4 4 4 4 4 5 4 3 3 2 3 3 3 4 4 5 5 6 6 6 6 4 3 1 1 2 3 7 6 4 5 3 3 4 4 4 2 3 4 3 4 4 5 6 3 7 11 6 1 4 3 0 2 2 2 2 3 3 7 7 6 5 3 3 1 1 3 4 4 4 2 1 2 3 3 5 7 6 5 6 4 4 5 5 7 10
8 8 6 5 5 5 5 5 4 3 3 3 4 4 3 4 5 6 6 6 6 5 5 3 2 1 2 1 4 7 8 8 8 8 7 6 3 2 2 3 4 4 4 3 4 6 5 8 9 5 3 5 2 1 2 3 2 1 3 2 5 6 6 5 1 2 3 0 1 1 3 5 3 3 4 2 2 4 7 5 5 4 4 4 4 5 6 9
8 9 8 7 6 6 5 5 5 4 3 4 4 4 4 5 5 6 6 6 5 4 3 2 1 2 3 3 4 4 8 9 9 8 6 4 3 5 5 5 5 4 4 5 5 6 6 8 8 5 2 3 2 3 4 5 3 1 1 2 2 2 4 6 1 2 4 1 1 2 2 5 3 1 6 4 2 3 5 4 4 3 3 3 3 4 5 8
8 10 9 7 7 6 5 5 5 4 3 4 4 4 5 5 6 6 6 5 3 2 1 1 1 3 2 4 5 4 7 6 6 6 4 5 6 6 6 6 6 7 6 7 8 8 8 9 7 5 1 2 3 4 3 4 3 2 1 3 2 1 4 8 3 2 2 2 4 4 3 5 3 3 5 5 1 5 6 2 3 3 3 3 3 4 4 5
9 10 8 8 8 7 6 5 5 4 3 4 4 4 5 6 6 5 4 3 1 1 1 1 3 4 1 3 2 2 4 4 4 5 5 7 7 5 8 9 8 8 8 9 10 10 8 7 4 2 2 2 4 4 3 3 4 2 0 3 2 2 3 6 3 1 1 0 4 2 2 4 1 3 4 5 3 6 6 2 2 2 3 3 3 4 4 5
9 9 9 9 8 6 5 5 4 2 3 5 4 4 5 5 4 3 2 1 2 2 2 3 4 3 1 2 1 3 2 3 4 4 7 8 6 7 9 8 6 8 9 8 7 6 5 4 1 0 2 3 3 4 3 2 4 3 1 2 3 3 2 4 4 2 4 3 1 2 1 5 3 3 3 5 2 4 5 3 2 2 2 3 3 4 4 5
9 9 10 11 9 6 6 5 4 1 4 5 3 4 3 2 2 1 3 5 4 3 2 2 4 1 3 2 2 2 2 4 5 6 7 7 6 8 8 5 6 8 7 4 3 3 3 3 2 1 3 2 2 5 3 5 4 3 2 2 3 2 3 4 4 2 4 3 2 2 2 8 8 3 2 5 2 4 4 3 2 2 3 3 3 5 4 6
11 10 11 13 11 7 6 5 4 2 5 3 2 2 0 1 0 1 4 5 3 2 1 3 3 2 3 3 1 2 4 6 5 5 7 8 8 9 7 7 7 7 5 1 1 1 1 3 4 1 1 2 4 7 8 7 5 6 5 3 4 3 4 5 5 4 1 2 3 5 6 7 10 6 1 3 2 4 4 3 3 2 3 3 4 4 4 6
13 12 12 13 12 8 6 6 4 4 5 2 1 2 2 1 1 2 1 3 5 4 3 5 6 2 2 2 2 6 6 5 3 4 8 10 11 10 6 4 6 5 3 4 2 1 2 3 3 4 6 7 8 9 6 2 4 4 3 2 3 4 5 5 5 4 0 1 5 6 6 6 9 8 3 2 1 4 3 3 3 2 3 3 4 4 5 5
14 14 13 14 12 8 7 8 5 5 6 3 3 3 2 4 2 2 2 3 9 9 5 6 6 4 4 2 6 9 5 1 1 3 9 10 10 9 1 2 4 1 1 3 3 2 3 4 7 8 7 6 6 7 4 1 1 2 2 3 3 4 7 6 4 4 1 2 5 4 4 7 9 6 2 2 1 2 1 3 3 3 3 2 3 4 4 3
16 15 14 15 12 9 8 8 5 5 6 4 4 3 3 3 2 1 1 2 8 9 8 5 3 6 6 3 7 7 3 1 1 2 10 9 5 5 1 3 5 3 1 3 3 2 1 4 9 8 4 5 3 4 4 4 4 2 2 1 4 4 3 5 4 4 2 3 4 4 3 8 8 2 2 3 2 1 1 2 2 3 3 2 3 3 3 3
17 16 14 14 11 9 8 8 6 6 7 6 5 4 3 2 3 2 3 0 5 4 5 5 4 6 5 3 7 8 3 5 4 4 11 10 3 4 4 5 5 4 3 4 5 4 3 5 9 6 6 5 1 3 6 3 2 2 3 3 5 2 1 4 4 3 1 1 2 2 3 7 7 0 4 3 2 2 2 3 3 2 3 3 3 3 3 3
17 16 14 13 11 9 8 7 6 8 9 9 9 7 4 3 5 4 2 0 4 4 3 5 5 5 5 4 8 11 4 4 3 4 12 12 4 3 5 5 5 4 4 7 7 6 5 5 2 5 6 6 4 3 5 4 2 2 5 6 5 3 5 6 3 3 2 3 1 1 3 5 5 2 1 2 2 2 2 3 4 3 3 3 3 3 3 3
17 16 15 13 11 10 9 6 8 11 10 8 10 10 7 5 5 4 2 2 3 5 3 4 3 4 6 5 8 10 2 2 3 3 9 11 6 4 2 2 4 5 6 6 5 4 6 4 4 5 4 5 5 4 5 6 3 3 5 9 9 7 8 6 1 3 3 3 2 1 3 4 3 2 1 1 1 1 2 2 3 3 3 3 3 3 3 3
18 17 15 14 11 11 9 5 8 12 9 6 9 10 10 8 6 4 3 3 4 4 1 3 3 5 7 4 4 6 3 3 2 1 5 6 4 4 2 1 1 4 6 5 3 3 3 1 4 5 5 5 5 5 5 7 4 2 4 8 9 7 6 4 3 2 0 2 2 2 1 4 5 3 2 2 1 1 1 1 2 2 2 2 2 2 2 2
18 17 16 14 13 15 10 3 7 10 5 6 9 12 11 9 8 4 3 3 5 2 4 1 0 4 6 2 2 6 2 3 2 3 2 2 1 3 3 3 2 1 3 4 1 2 3 2 4 5 5 5 5 4 5 8 6 3 4 5 6 6 6 5 5 4 3 2 3 2 2 3 4 3 3 2 2 2 2 2 2 2 2 2 2 1 2 1
20 18 17 15 16 20 12 2 8 11 3 5 12 14 12 10 7 3 3 1 4 2 4 1 1 3 2 1 3 4 2 1 4 1 2 3 0 3 2 5 6 4 2 4 4 3 3 4 5 6 5 4 5 5 8 10 5 5 3 5 5 5 5 5 6 3 1 1 3 3 1 2 4 3 2 1 3 5 5 5 4 4 4 3 3 2 2 2
22 20 18 15 15 19 15 5 8 10 5 7 14 14 12 10 6 3 3 3 2 3 2 1 2 2 2 3 4 3 1 2 2 2 2 3 2 4 2 4 6 6 1 2 4 3 1 3 6 7 5 5 4 2 6 9 4 3 5 6 5 5 4 4 4 3 2 1 4 5 4 2 4 4 2 0 3 6 4 5 5 5 5 4 4 4 3 3
24 21 19 16 14 18 18 14 14 11 7 10 15 15 12 6 2 4 3 4 1 2 1 2 2 1 4 5 1 2 1 1 1 1 2 1 3 5 2 2 5 5 2 4 1 2 2 2 1 4 3 5 4 2 1 4 3 4 5 5 5 5 4 3 2 3 2 2 5 5 3 3 3 4 3 3 3 4 5 5 6 6 6 6 5 4 4 3
26 23 21 20 19 22 17 13 18 15 8 13 17 15 10 2 2 4 5 2 2 1 2 2 1 3 7 7 2 1 2 1 1 3 3 1 3 4 2 2 4 4 3 4 3 4 3 1 2 1 2 4 6 5 3 2 3 4 3 4 4 2 3 3 4 3 1 4 5 3 1 2 3 4 4 4 4 4 6 7 11 11 9 7 5 4 4 4
28 26 25 24 23 25 18 10 17 17 11 16 17 10 5 1 2 6 4 0 1 2 4 3 2 4 6 3 2 3 3 1 0 3 4 2 3 3 2 3 4 3 2 3 2 3 2 4 2 0 1 4 6 4 4 4 4 4 3 4 3 2 3 2 3 0 3 5 3 3 2 2 5 6 6 5 5 5 5 4 9 13 12 9 6 5 4 4
32 28 28 28 26 29 24 12 14 19 16 18 12 2 2 4 5 7 5 1 1 1 3 3 2 4 6 4 2 2 2 1 2 2 2 3 3 3 2 2 5 3 1 3 2 1 3 4 0 3 1 2 6 5 2 1 1 4 4 4 3 2 2 2 3 2 3 3 2 3 1 1 3 4 4 4 3 4 3 3 5 10 12 11 8 6 5 5
34 31 30 31 29 31 28 16 14 21 20 16 8 1 2 4 3 2 4 3 1 2 2 3 4 4 5 4 3 4 3 0 3 3 2 3 4 3 3 3 3 3 3 2 2 2 1 3 2 4 1 2 6 5 4 5 3 3 4 4 4 4 3 3 3 2 3 2 2 3 1 2 3 2 3 3 3 3 3 4 3 6 8 7 6 6 6 5
33 34 33 33 32 32 30 21 17 23 21 11 4 4 4 5 2 1 3 3 1 1 3 2 5 5 2 1 1 4 4 2 3 4 2 3 4 4 4 5 5 4 4 3 2 2 2 4 4 1 1 3 5 3 4 6 3 1 2 4 2 4 4 1 2 5 2 2 3 2 2 4 3 2 4 3 2 3 2 2 4 5 6 6 6 6 6 6
33 34 31 30 31 32 32 25 20 25 20 7 3 5 5 4 2 2 2 2 2 4 5 2 3 4 2 1 1 4 2 2 4 3 0 2 3 4 4 4 6 7 5 4 3 2 2 4 4 2 1 1 3 3 2 3 3 2 2 3 4 4 5 2 1 2 3 2 3 1 3 4 1 2 3 3 3 3 2 2 6 6 7 7 7 7 7 7
31 27 22 22 27 31 33 28 25 25 16 5 6 6 3 2 3 3 1 1 1 4 6 4 2 3 3 2 2 4 2 2 3 3 2 2 2 4 4 3 5 10 9 4 2 3 4 2 4 1 1 1 2 2 3 3 3 5 3 4 3 2 3 3 0 2 2 3 3 1 3 4 1 2 3 3 3 3 2 3 5 6 7 9 9 9 9 8
24 16 11 18 29 34 33 31 28 21 7 3 8 8 4 4 3 3 2 2 1 2 3 4 2 3 4 4 3 4 4 3 3 3 3 3 2 4 5 3 4 8 7 4 2 1 4 1 4 1 2 2 2 2 3 4 3 4 4 2 2 2 1 2 1 0 1 4 4 2 4 4 4 4 2 3 8 8 6 5 7 9 11 12 12 11 10 9
19 9 4 14 28 32 34 34 25 12 4 5 9 8 4 4 3 3 4 2 1 2 3 3 1 2 3 5 4 3 4 4 5 4 2 2 2 2 4 2 3 3 3 5 4 1 4 2 3 2 2 1 2 2 2 1 3 3 1 2 2 2 3 2 2 2 2 3 4 5 6 4 5 5 6 9 11 10 9 8 10 13 14 14 13 13 12 10
12 4 1 12 25 29 34 30 15 6 5 5 6 5 2 3 3 3 4 3 2 1 2 2 2 3 3 3 2 3 3 4 6 4 1 2 2 3 2 1 4 2 1 4 4 1 2 2 2 2 2 1 2 2 5 6 3 2 1 1 0 1 2 0 0 2 3 2 2 5 8 6 4 4 7 9 8 10 13 13 13 14 15 14 13 12 11 10
5 2 2 12 26 30 29 18 6 5 5 3 3 3 2 3 3 2 2 2 2 1 2 2 3 3 3 2 1 2 3 4 5 4 2 3 2 2 1 1 4 4 3 4 3 1 1 2 3 1 1 3 4 3 2 4 5 5 4 4 4 3 3 1 2 1 2 2 3 4 8 9 4 2 4 4 4 8 11 11 11 11 12 11 9 7 7 7
4 4 2 12 27 30 21 7 3 5 4 4 4 3 3 3 3 3 2 1 2 1 2 3 2 2 3 2 1 2 3 3 4 4 3 4 4 2 1 1 4 4 4 4 3 2 2 3 3 2 3 4 3 3 1 1 3 5 3 3 4 4 4 4 5 3 1 1 1 1 5 8 3 1 3 3 4 5 6 7 7 6 6 6 4 3 4 5
3 3 3 11 23 22 11 4 5 5 4 4 5 3 3 3 3 3 3 1 1 1 1 1 1 2 2 1 2 2 2 2 3 4 3 3 3 2 2 3 3 3 3 2 1 0 2 3 2 1 3 2 3 1 1 3 3 3 1 2 3 3 3 4 5 3 2 3 1 2 5 8 3 0 2 3 4 4 4 6 6 4 4 6 7 6 6 6
2 2 2 7 15 11 5 4 7 7 4 4 6 3 1 2 4 5 4 4 3 2 2 1 1 2 2 2 3 2 2 1 2 3 2 3 3 1 1 3 1 3 2 2 3 1 1 2 2 1 2 4 4 3 3 4 1 2 2 1 2 3 3 2 1 2 1 7 5 3 8 9 2 1 2 3 3 4 5 5 6 7 6 7 9 9 9 10
2 2 1 3 6 4 2 2 3 6 6 6 7 7 4 1 2 4 6 6 3 3 3 1 0 2 2 3 3 2 2 1 2 2 1 2 1 2 2 4 2 3 2 1 5 4 2 3 3 2 3 5 3 1 2 2 0 1 2 2 4 6 6 3 1 2 5 7 5 5 10 9 3 1 2 4 3 4 5 4 5 6 6 7 8 9 11 11
1 1 0 1 2 1 1 1 1 2 6 8 6 7 9 7 1 1 6 6 4 5 4 2 1 2 2 4 4 4 3 0 1 1 2 2 2 1 1 3 3 2 1 4 6 5 3 2 4 5 7 8 6 5 4 3 2 2 4 4 6 7 7 4 2 4 6 3 4 10 12 9 9 5 2 4 5 5 5 4 5 6 6 7 8 9 9 8
1 1 1 1 1 0 1 0 1 1 3 7 6 5 11 10 3 1 4 4 5 7 4 2 5 4 5 7 5 5 4 1 2 2 2 3 1 1 0 1 2 1 1 4 2 3 4 3 6 8 10 11 10 7 5 5 5 7 6 8 9 7 7 7 6 8 6 2 8 14 9 7 12 9 6 7 7 5 5 5 6 7 7 7 7 7 7 7
1 1 1 0 0 2 2 2 3 1 2 3 3 4 9 11 7 5 3 1 3 7 5 2 6 9 8 8 6 4 4 3 3 3 2 2 2 1 1 1 1 1 1 2 2 2 4 4 7 8 9 12 11 8 6 6 6 7 8 11 13 11 10 9 9 11 9 7 13 15 8 9 13 8 6 8 6 5 6 6 5 5 5 5 6 7 9 10
1 1 1 1 1 2 1 1 4 4 3 2 1 2 6 10 9 5 3 3 2 5 6 5 7 11 10 7 6 4 4 5 4 4 4 3 4 3 1 1 1 2 2 3 0 1 3 4 4 6 6 11 10 6 5 6 5 6 8 12 15 15 11 9 12 15 13 13 17 15 13 15 11 5 6 7 5 4 3 2 3 4 5 6 7 9 10 11
2 2 1 2 2 1 1 1 3 4 3 3 3 3 3 7 7 3 2 5 4 3 6 8 7 9 10 8 8 8 10 9 6 5 7 5 4 4 3 3 2 2 1 2 0 1 2 1 1 4 3 9 7 4 6 6 6 6 10 15 18 15 9 10 14 14 11 13 15 12 13 15 8 5 6 5 2 3 3 4 5 6 6 7 8 9 9 9
3 2 3 3 2 3 1 1 3 3 2 4 4 3 3 5 7 5 2 4 6 6 7 10 8 7 7 9 11 13 11 9 7 8 10 8 6 5 3 3 5 5 2 2 2 1 3 1 2 4 3 8 4 5 6 3 1 5 13 21 20 13 10 12 12 9 10 12 12 10 12 12 6 5 5 4 3 5 6 7 6 6 7 8 9 8 7 8
4 3 2 3 1 3 3 2 3 3 3 4 4 3 4 4 6 7 3 3 4 5 6 10 9 6 5 9 13 12 7 7 6 6 6 5 4 4 3 3 6 7 5 4 2 2 4 3 1 3 4 6 2 5 5 3 1 7 13 16 15 12 13 12 8 8 12 11 9 9 10 8 3 5 5 5 6 7 8 7 6 6 7 7 8 7 7 8
Wind_Direction
161 156 148 135 129 127 122 118 119 120 115 104 87 77 65 65 51 43 40 16 5 1 356 353 352 351 349 349 347 345 343 337 335 345 357 352 327 238 207 162 159 122 95 201 186 163 87 54 45 49 70 50 13 349 13 17 60 56 74 87 29 201 200 184 183 196 176 283 273 309 31 131 303 319 308 321 44 339 325 309 287 309 281 216 20 5 1 2
169 158 149 142 138 123 118 126 131 136 132 117 96 81 62 63 53 38 32 11 2 358 355 352 352 349 349 351 347 347 341 334 340 16 29 12 21 140 144 136 152 132 122 164 172 139 92 53 47 58 53 41 350 349 25 3 50 82 112 84 244 204 210 194 179 196 196 262 270 295 356 157 261 293 349 315 302 343 344 301 321 334 293 312 13 13 18 27
175 162 156 155 147 130 129 137 142 156 150 130 108 84 61 55 45 31 23 7 1 357 352 351 350 348 351 350 350 349 339 339 2 28 21 29 81 119 129 126 128 127 119 129 139 109 116 142 104 74 48 55 360 357 41 14 21 133 117 96 240 214 235 227 198 210 212 250 296 298 347 165 247 236 343 306 291 322 306 280 315 311 286 327 10 19 27 36
192 171 164 165 157 146 145 147 150 162 151 133 111 85 63 48 33 24 17 3 358 354 350 351 349 350 352 350 355 348 342 5 43 316 11 41 101 114 119 119 113 119 123 124 124 106 115 114 86 73 65 56 338 9 60 348 13 138 128 171 219 187 247 230 205 225 224 201 240 281 328 301 256 175 194 303 314 307 254 250 247 269 300 347 6 21 28 34
223 188 174 177 171 162 157 157 155 156 145 126 116 80 58 37 21 17 12 357 354 352 349 349 347 352 353 354 1 350 1 42 190 271 22 42 122 117 112 116 107 105 116 127 125 110 108 90 63 55 55 53 345 25 61 310 91 136 193 187 182 153 239 239 201 225 207 166 236 287 311 295 177 145 180 162 272 287 320 307 266 330 13 40 24 24 29 32
226 223 192 184 178 179 173 170 172 164 153 129 118 70 49 26 11 9 4 354 351 350 349 349 351 356 355 358 359 2 42 47 248 255 354 27 138 132 115 114 101 91 100 124 130 111 86 55 53 57 46 51 21 60 175 313 51 154 272 228 193 181 224 242 189 214 181 125 281 263 291 314 23 313 198 170 235 291 20 17 65 57 57 63 47 38 32 29
228 233 218 195 184 192 188 185 187 172 157 141 113 23 28 12 5 359 356 351 349 351 352 351 353 355 1 7 1 31 69 269 265 240 281 9 145 171 125 121 105 109 143 128 126 115 90 64 71 129 83 42 202 139 89 352 40 111 256 285 198 193 222 233 193 231 195 222 257 253 334 296 290 299 295 207 279 36 37 50 69 63 55 54 49 41 34 31
276 264 247 226 210 204 201 199 187 168 179 159 112 348 349 357 359 353 351 347 346 351 350 351 353 358 2 14 37 30 6 253 246 213 265 219 203 188 152 179 165 214 190 157 146 140 120 98 147 156 90 343 180 139 117 23 38 129 222 266 134 202 250 269 289 278 252 243 251 28 285 262 238 205 305 314 37 48 44 54 53 60 52 46 44 35 31 30
267 299 299 269 247 224 213 211 190 180 238 210 218 314 318 338 351 349 348 343 343 346 348 350 347 352 354 36 84 26 287 212 175 203 295 228 227 202 224 237 224 226 176 169 168 153 155 162 188 181 152 184 161 142 177 181 295 203 194 228 243 276 289 298 277 264 259 252 163 242 272 275 255 161 186 321 82 66 51 52 35 52 49 41 41 35 32 31
232 292 293 292 282 252 227 217 207 206 265 251 257 297 306 325 342 344 343 338 337 340 345 345 342 356 10 87 91 354 244 161 146 159 79 78 62 45 244 235 225 219 165 159 164 153 164 187 171 147 137 132 153 140 140 164 199 177 167 220 258 298 306 278 256 268 278 263 181 229 272 296 341 258 186 189 103 82 58 50 29 50 49 39 40 35 37 36
265 252 274 290 282 265 238 223 221 222 262 262 271 285 300 321 332 335 334 331 332 340 342 340 341 351 62 110 127 215 223 182 206 173 120 45 6 321 263 226 211 205 175 155 171 170 157 172 148 118 132 151 141 83 237 193 117 109 115 298 294 320 307 255 265 290 315 276 191 197 262 316 31 299 210 330 68 86 74 55 31 46 41 33 38 36 38 35
273 274 287 285 271 274 254 231 229 239 264 263 265 279 301 312 317 322 324 327 329 336 336 336 336 295 68 73 184 225 229 209 214 221 269 295 308 279 246 218 193 175 180 155 178 183 152 163 141 107 185 150 132 53 222 196 93 101 56 338 304 343 327 282 296 312 351 268 173 160 276 321 14 267 302 13 85 94 76 55 31 39 28 27 32 37 42 34
271 286 298 293 281 282 263 233 230 252 261 253 264 275 293 302 310 314 315 321 325 335 336 336 326 208 101 304 228 230 234 231 244 262 275 280 277 223 183 179 165 148 160 136 157 171 167 174 145 113 130 119 143 187 113 64 55 263 50 36 308 349 330 297 13 351 349 212 159 101 289 297 296 297 339 9 152 77 61 45 26 29 20 22 23 37 44 34
266 281 289 296 293 281 267 239 227 246 259 259 269 275 291 301 304 305 309 314 321 332 336 355 330 140 121 252 249 247 243 242 253 258 257 240 182 144 138 138 138 130 131 125 138 153 168 170 133 103 107 90 150 135 54 13 17 312 12 47 351 344 287 293 280 311 333 338 81 95 249 275 241 278 350 336 251 82 73 38 25 25 16 20 20 36 40 35
251 269 282 296 296 279 259 240 228 238 263 269 277 285 295 298 297 302 304 303 311 323 350 57 132 128 82 276 260 260 251 241 240 235 224 203 171 138 129 130 124 118 117 117 123 128 140 145 118 102 130 10 76 98 30 348 11 33 307 303 347 173 270 305 296 196 253 301 44 103 220 283 205 177 348 349 88 101 98 48 33 31 21 29 21 35 36 30
248 268 284 291 291 279 250 241 234 232 265 279 284 292 296 299 300 300 294 287 258 188 97 105 142 124 89 270 247 258 247 218 210 210 191 183 178 153 133 127 114 113 116 109 110 113 111 108 88 95 132 62 78 93 50 359 336 358 72 252 266 205 278 317 320 163 201 254 21 65 212 289 213 194 336 16 78 96 106 97 55 49 33 45 34 37 37 26
250 268 281 282 286 276 245 235 221 226 287 285 283 294 298 301 298 288 268 168 156 151 111 129 129 107 258 231 232 279 244 177 172 171 174 175 179 163 139 118 100 107 106 99 105 98 63 57 56 329 60 66 106 99 62 317 282 305 35 226 247 221 219 302 307 355 49 91 6 8 221 265 255 189 351 15 63 100 112 125 90 77 54 53 48 48 41 34
246 257 267 275 281 271 251 228 194 231 294 282 290 300 297 295 273 212 173 151 127 95 77 112 114 95 269 216 203 243 137 148 157 149 160 159 158 160 143 117 112 106 85 64 71 65 20 28 71 58 29 33 113 114 173 234 219 206 196 205 255 251 223 260 274 299 28 38 330 333 272 269 273 217 65 14 37 103 113 128 108 86 66 60 53 53 44 41
242 247 254 267 272 263 247 208 176 247 278 273 292 301 41 66 257 180 159 144 136 142 200 212 154 144 245 248 217 150 117 130 140 142 148 143 144 142 121 105 106 99 91 87 49 78 81 53 67 119 206 206 183 177 203 212 179 184 195 188 214 246 248 237 250 261 333 2 281 261 251 261 272 266 27 13 31 93 112 112 88 72 66 61 56 53 47 47
247 249 248 257 262 260 237 188 170 257 263 248 200 147 132 137 5 309 213 164 207 200 170 200 190 186 272 276 145 140 130 124 133 155 154 151 143 127 97 73 70 65 106 154 169 99 106 133 175 204 214 206 198 202 208 160 128 155 176 203 208 228 263 257 261 277 202 215 260 249 251 257 260 267 312 349 38 88 99 97 85 76 67 60 64 58 49 52
246 249 245 249 253 252 225 187 183 252 257 233 183 162 181 181 150 279 261 256 245 231 232 222 202 244 263 182 155 154 138 92 20 154 160 161 147 139 110 55 94 79 241 160 141 50 91 169 218 226 214 194 184 196 203 191 173 173 189 251 257 228 256 265 257 289 333 194 265 282 286 276 263 257 315 349 84 75 84 115 113 99 89 74 70 61 53 55
243 244 241 244 245 239 217 190 193 242 257 242 201 199 229 202 182 203 161 282 270 238 231 237 225 257 256 191 176 161 119 169 264 191 170 157 143 177 191 86 139 181 191 132 114 54 89 214 238 232 178 126 120 150 167 211 226 212 160 215 258 241 280 291 286 326 14 178 261 317 310 278 274 254 40 14 79 59 3 112 122 122 109 85 77 69 61 57
241 242 239 238 235 228 210 193 207 238 244 236 216 211 227 211 179 138 115 273 290 256 210 207 207 229 234 231 194 168 170 205 210 229 183 156 139 190 144 123 158 147 142 177 170 165 197 242 241 211 145 139 164 132 137 162 216 183 155 179 245 242 40 281 290 339 15 172 260 323 309 277 274 262 66 30 78 83 39 80 80 87 100 91 91 78 67 67
238 237 235 231 226 217 202 198 227 241 235 234 232 218 198 178 168 153 113 22 283 278 226 203 195 199 205 213 185 176 199 205 187 217 183 162 139 152 157 153 144 138 187 198 183 189 225 237 193 129 137 169 204 177 156 181 253 234 200 209 235 227 210 230 283 328 331 5 20 317 313 285 271 260 93 23 49 70 43 80 73 57 78 86 81 67 59 66
233 231 230 225 217 205 194 198 233 234 227 232 233 213 188 183 171 153 102 32 288 290 280 212 192 201 188 149 163 173 169 223 219 215 178 168 148 135 179 155 136 191 199 169 168 220 253 235 134 118 128 152 180 212 194 184 220 287 231 217 220 221 226 228 337 358 352 353 346 19 325 290 309 321 252 356 33 66 31 78 91 66 68 72 72 65 54 54
230 227 224 222 210 189 181 208 232 221 212 226 226 200 185 181 165 151 92 37 280 264 231 197 178 179 170 133 154 148 102 268 252 101 150 171 158 121 144 140 77 205 181 140 160 216 254 258 121 152 162 149 176 234 224 165 142 292 244 208 209 211 218 208 142 108 200 264 309 46 184 267 313 328 296 319 250 191 45 107 130 92 88 98 91 75 59 48
227 224 220 218 202 181 177 224 207 187 191 229 207 185 183 173 167 179 84 15 277 194 127 224 160 149 163 163 157 136 167 258 68 65 96 137 181 76 127 179 115 198 176 127 204 240 173 103 88 136 149 155 187 238 218 155 132 237 237 156 162 179 192 189 160 175 227 248 325 13 141 256 295 283 284 306 242 231 220 216 203 173 172 147 121 101 95 76
223 222 219 215 201 187 180 172 177 174 193 204 180 176 177 170 172 162 88 259 273 97 104 251 57 92 123 56 64 112 199 291 98 238 358 71 120 52 97 199 167 171 179 142 207 265 136 156 173 151 132 169 204 220 187 158 154 237 204 126 138 154 165 156 141 175 260 37 305 297 151 242 277 271 308 347 257 250 215 206 211 201 197 169 150 156 138 130
221 219 218 213 207 197 192 202 192 190 207 174 167 170 166 171 177 89 86 223 247 79 78 119 110 46 52 75 37 52 42 29 107 244 360 73 71 60 131 200 146 137 93 119 205 258 72 205 193 147 141 196 209 239 180 166 187 207 133 101 81 77 89 97 116 132 66 67 247 241 184 204 273 283 304 61 261 253 208 193 211 207 200 184 175 174 159 150
220 217 215 208 204 201 204 228 224 201 196 178 165 162 158 165 158 108 181 222 134 91 61 108 153 121 115 124 24 348 53 24 28 43 31 80 39 37 115 150 97 113 35 11 319 262 327 309 191 140 164 185 147 59 115 151 146 141 115 78 59 44 47 51 68 94 70 283 250 239 202 190 265 279 241 194 231 213 158 169 203 204 201 197 190 177 168 162
220 215 213 207 203 200 198 226 221 198 187 181 163 152 152 124 73 162 206 224 89 113 125 127 197 132 137 145 158 189 99 29 344 78 82 89 52 47 85 109 81 75 12 343 314 309 344 348 264 205 153 127 102 64 38 52 93 113 96 82 87 355 12 25 356 48 112 253 261 286 294 175 219 263 239 221 228 192 167 179 190 194 197 194 186 178 174 167
221 214 211 210 209 203 199 216 207 189 176 174 161 145 152 144 209 206 220 3 139 192 158 164 201 156 157 134 106 157 132 97 14 96 120 138 133 157 160 157 148 71 348 250 265 334 302 232 240 300 167 133 112 82 46 32 52 90 93 93 96 348 11 2 313 312 218 249 269 311 331 200 226 253 251 230 217 208 208 202 190 189 188 184 182 178 171 170
224 215 210 211 211 206 206 212 194 180 169 165 161 137 157 177 218 217 213 209 202 181 126 118 100 132 145 126 133 171 111 130 179 124 123 120 135 194 211 169 161 118 67 199 192 345 306 291 198 135 241 174 148 144 134 139 125 143 148 129 127 97 61 283 273 273 261 265 274 281 303 268 258 269 257 231 226 232 240 262 224 193 184 180 177 170 168 176
224 217 210 211 213 210 208 205 187 179 168 159 162 148 161 200 239 206 195 215 297 30 68 96 98 108 136 152 197 176 121 209 178 126 95 106 124 194 218 211 181 116 98 143 182 168 169 307 206 166 222 184 175 180 153 143 140 171 166 131 142 148 150 223 227 222 258 292 304 293 258 194 213 265 272 245 267 287 265 255 232 187 175 165 159 160 170 181
221 215 210 207 208 209 205 200 191 182 171 158 169 173 187 220 252 85 186 200 221 51 40 52 101 113 166 209 252 196 166 198 164 121 117 152 158 186 189 197 192 150 124 156 212 143 147 263 259 246 283 159 175 198 123 116 118 209 147 111 154 181 155 179 187 172 189 303 298 256 226 219 195 261 302 302 301 327 316 229 174 159 152 146 160 175 181 187
214 207 204 202 201 201 200 198 193 185 175 162 199 196 207 220 180 179 204 158 171 146 116 80 87 113 197 216 243 227 192 145 151 136 190 194 192 199 196 206 190 175 160 156 192 149 122 276 297 4 349 137 176 200 126 121 165 160 138 172 218 182 127 107 214 124 94 291 272 189 248 283 333 296 309 354 345 347 358 187 165 158 158 164 183 192 192 192
204 197 196 199 198 197 198 197 191 187 182 176 207 210 213 206 175 175 194 113 163 144 136 163 169 144 180 187 207 212 183 127 149 152 181 201 220 194 200 249 192 186 191 161 187 187 138 268 298 50 129 277 236 163 67 31 126 126 168 215 206 143 92 90 186 7 41 258 275 172 229 261 267 272 315 355 302 278 254 203 173 166 176 186 197 198 196 194
188 184 192 203 198 196 197 194 187 186 190 197 211 219 203 190 183 150 155 165 152 138 158 189 182 148 173 181 194 192 174 157 157 164 172 192 242 172 170 220 191 194 205 149 123 219 127 147 294 277 168 271 342 95 66 7 52 120 180 202 125 133 95 84 127 289 252 262 286 264 255 252 202 216 235 229 233 220 202 202 191 189 193 196 201 201 197 192
170 169 211 204 196 195 195 190 182 181 207 209 211 221 197 175 188 166 159 151 119 150 187 208 164 125 166 173 167 169 170 158 157 169 170 175 227 185 163 197 179 211 238 153 153 204 124 142 269 260 204 243 19 88 165 256 27 56 63 25 47 147 147 139 150 152 207 263 288 285 291 276 217 200 186 204 216 195 182 198 205 203 201 199 198 196 195 193
155 169 252 181 183 191 190 184 177 183 210 214 210 210 166 151 180 183 173 159 133 173 197 205 170 145 159 175 173 167 151 144 155 166 186 174 199 213 210 157 142 165 272 143 150 138 113 150 220 283 309 190 186 200 183 177 149 94 77 51 25 106 101 190 219 123 149 189 239 275 284 270 235 191 185 205 212 186 184 196 205 208 206 204 201 195 193 191
139 205 231 167 172 178 178 176 184 190 196 224 203 181 162 156 145 148 193 166 139 180 181 154 155 154 148 152 190 179 133 132 153 156 188 205 183 188 242 53 137 156 111 117 152 190 148 150 166 198 258 199 231 282 222 181 164 150 163 184 182 150 117 179 257 199 142 173 186 230 271 272 259 190 195 214 212 197 200 202 205 212 210 208 207 196 188 183
156 198 172 162 169 168 165 178 207 170 190 211 173 142 148 145 127 143 172 103 110 168 156 121 127 142 140 137 166 171 138 136 166 167 182 206 185 170 317 61 132 136 111 128 191 201 144 109 118 187 216 213 254 299 302 253 134 133 161 180 159 143 140 177 229 226 157 234 191 126 270 274 273 197 224 249 240 225 227 220 214 218 208 197 190 163 149 159
181 177 102 155 171 170 167 197 186 171 210 186 134 112 146 144 137 150 150 130 125 115 116 120 123 137 149 128 125 163 157 141 168 174 178 201 187 185 243 210 142 94 88 131 186 131 98 85 72 287 282 323 341 322 5 26 74 118 205 151 142 164 166 184 210 181 149 226 186 78 265 265 278 196 244 266 263 258 250 226 208 197 186 179 175 165 156 166
133 105 78 160 176 181 192 199 185 188 192 140 129 142 133 132 160 160 158 168 163 121 125 144 127 140 146 99 108 173 202 160 173 186 172 184 182 124 271 261 107 101 139 168 170 176 101 104 99 13 316 333 344 349 347 349 34 180 236 229 202 193 125 96 181 114 204 229 196 181 254 258 281 23 328 338 317 274 257 226 199 193 193 187 182 181 180 182
114 99 63 161 173 184 213 201 187 190 172 149 159 165 155 168 193 169 159 160 156 138 140 158 96 123 121 98 100 165 206 161 167 192 142 184 243 30 5 334 43 145 210 164 142 144 141 159 150 153 223 246 252 223 249 272 194 191 250 240 226 205 172 165 200 162 226 232 191 205 250 264 290 13 339 329 307 265 258 236 215 213 203 193 193 195 194 191
117 103 88 145 150 152 213 123 55 215 180 165 167 172 173 180 230 185 164 166 172 152 137 142 133 103 136 159 152 175 203 146 86 158 157 189 259 343 356 351 37 130 95 87 119 121 102 193 197 189 215 235 236 216 191 161 149 204 234 224 220 213 194 190 190 203 230 243 223 236 247 266 275 261 223 258 246 231 241 230 221 227 214 203 205 204 200 195
105 161 175 151 119 177 261 210 86 312 218 179 172 177 179 177 168 175 186 189 170 154 138 146 162 165 176 173 170 184 191 152 104 160 166 177 227 307 257 54 49 15 83 91 106 105 104 220 218 202 222 237 241 232 180 160 210 224 229 236 235 219 187 186 212 231 237 262 253 251 244 247 262 252 207 224 229 218 234 225 213 221 217 207 203 194 190 188
121 148 172 86 104 186 232 219 159 183 270 221 184 172 177 180 171 160 174 182 157 161 159 172 190 194 186 168 164 170 167 168 185 180 151 162 196 214 15 66 49 337 69 78 3 98 132 231 220 192 225 244 247 243 186 177 225 231 226 237 239 231 206 194 221 235 229 234 253 261 256 242 258 255 205 215 220 210 228 226 212 220 219 206 195 189 195 198
98 86 12 360 51 161 220 168 149 177 213 217 217 195 180 182 180 166 135 126 161 189 183 192 203 198 190 164 145 153 172 177 185 182 167 181 194 181 198 259 310 359 72 117 23 125 155 244 219 174 228 254 253 241 193 190 223 234 236 238 239 239 224 206 230 238 233 239 252 264 270 263 261 228 196 222 228 215 239 248 204 213 216 204 198 202 207 206
133 147 136 65 83 114 9 59 138 177 195 176 211 222 174 170 173 156 122 151 163 192 199 205 196 182 185 173 163 194 202 180 171 176 171 180 199 187 199 210 169 46 56 129 134 268 196 230 148 136 222 260 253 193 174 196 215 235 254 252 246 247 238 226 239 242 238 246 251 256 266 267 254 171 184 230 230 195 228 234 218 219 214 205 207 212 211 204
99 97 123 117 137 149 134 126 142 164 199 194 209 196 161 180 174 152 173 198 177 166 190 200 181 158 182 187 192 211 206 179 183 187 174 179 193 188 203 197 152 139 161 159 135 201 196 198 57 104 207 259 248 152 165 185 234 267 261 256 251 249 241 236 239 232 223 234 243 244 250 257 241 166 182 217 197 197 223 227 223 224 213 205 208 208 201 198
103 54 94 110 131 165 155 135 145 178 211 196 204 195 167 174 161 152 182 242 180 161 180 188 174 151 181 200 209 215 192 162 178 179 165 163 151 149 171 171 152 148 160 169 154 152 166 167 133 139 214 263 260 133 141 113 29 264 253 248 244 242 243 246 247 234 222 216 221 232 240 248 211 157 180 211 211 219 231 227 218 218 213 208 208 202 197 201